H1 CPF 2 NER 2024 2 18 9 049 01 glonass147 H2 2311401 9147 57517 2024 2 18 0 0 0 2024 2 21 23 45 0 900 1 1 0 0 0 1 H9 10 0 60358 0.00000 0 19226560.950 -12132114.569 11569233.532 10 0 60358 900.00000 0 18063095.725 -11040771.261 14237050.489 10 0 60358 1800.00000 0 16791144.872 -9622224.001 16628455.528 10 0 60358 2700.00000 0 15472371.512 -7887822.388 18697160.584 10 0 60358 3600.00000 0 14166790.243 -5861662.260 20403172.094 10 0 60358 4500.00000 0 12930231.423 -3579830.851 21713552.196 10 0 60358 5400.00000 0 11812003.776 -1089153.868 22603041.801 10 0 60358 6300.00000 0 10852852.046 1554503.551 23054535.020 10 0 60358 7200.00000 0 10083293.744 4288311.920 23059397.166 10 0 60358 8100.00000 0 9522402.934 7044843.304 22617621.470 10 0 60358 9000.00000 0 9177090.372 9754631.196 21737822.423 10 0 60358 9900.00000 0 9041908.760 12348819.797 20437066.374 10 0 60358 10800.00000 0 9099390.280 14761794.571 18740542.761 10 0 60358 11700.00000 0 9320901.700 16933686.806 16681081.953 10 0 60358 12600.00000 0 9667981.106 18812649.791 14298528.299 10 0 60358 13500.00000 0 10094100.407 20356813.508 11638979.486 10 0 60358 14400.00000 0 10546780.153 21535837.571 8753905.719 10 0 60358 15300.00000 0 10969968.375 22331998.384 5699164.594 10 0 60358 16200.00000 0 11306583.948 22740765.474 2533929.596 10 0 60358 17100.00000 0 11501117.767 22770842.849 -680447.973 10 0 60358 18000.00000 0 11502182.157 22443673.334 -3881622.225 10 0 60358 18900.00000 0 11264900.670 21792426.162 -7007458.553 10 0 60358 19800.00000 0 10753036.685 20860509.726 -9997238.857 10 0 60358 20700.00000 0 9940769.769 19699671.385 -12792842.589 10 0 60358 21600.00000 0 8814043.233 18367763.756 -15339880.330 10 0 60358 22500.00000 0 7371424.136 16926271.068 -17588757.448 10 0 60358 23400.00000 0 5624437.300 15437699.509 -19495646.536 10 0 60358 24300.00000 0 3597356.991 13962941.389 -21023349.152 10 0 60358 25200.00000 0 1326462.737 12558724.163 -22142029.490 10 0 60358 26100.00000 0 -1141211.668 11275251.954 -22829805.095 10 0 60358 27000.00000 0 -3749585.396 10154139.150 -23073182.539 10 0 60358 27900.00000 0 -6435624.247 9226723.354 -22867329.013 10 0 60358 28800.00000 0 -9131734.295 8512829.004 -22216173.985 10 0 60358 29700.00000 0 -11768356.338 8020033.899 -21132338.421 10 0 60358 30600.00000 0 -14276653.164 7743469.511 -19636892.474 10 0 60358 31500.00000 0 -16591177.478 7666163.344 -17758945.997 10 0 60358 32400.00000 0 -18652408.878 7759908.399 -15535079.618 10 0 60358 33300.00000 0 -20409053.613 7986622.374 -13008627.440 10 0 60358 34200.00000 0 -21820010.683 8300138.144 -10228825.587 10 0 60358 35100.00000 0 -22855921.927 8648348.611 -7249843.661 10 0 60358 36000.00000 0 -23500241.400 8975613.813 -4129718.763 10 0 60358 36900.00000 0 -23749779.764 9225326.858 -929213.852 10 0 60358 37800.00000 0 -23614701.875 9342528.648 2289376.171 10 0 60358 38700.00000 0 -23117979.050 9276459.305 5463446.213 10 0 60358 39600.00000 0 -22294320.705 8982937.249 8531305.673 10 0 60358 40500.00000 0 -21188632.113 8426464.484 11433381.309 10 0 60358 41400.00000 0 -19854064.872 7581968.685 14113374.388 10 0 60358 42300.00000 0 -18349743.609 6436108.414 16519349.408 10 0 60358 43200.00000 0 -16738265.540 4988086.560 18604733.614 10 0 60358 44100.00000 0 -15083078.480 3249938.004 20329208.625 10 0 60358 45000.00000 0 -13445847.272 1246279.635 21659478.011 10 0 60358 45900.00000 0 -11883918.400 -986466.743 22569897.331 10 0 60358 46800.00000 0 -10447987.751 -3401346.367 23042955.940 10 0 60358 47700.00000 0 -9180067.548 -5942585.787 23069602.699 10 0 60358 48600.00000 0 -8111835.632 -8547678.985 22649410.565 10 0 60358 49500.00000 0 -7263434.178 -11149759.868 21790577.836 10 0 60358 50400.00000 0 -6642766.332 -13680164.056 20509766.578 10 0 60358 51300.00000 0 -6245318.684 -16071075.316 18831781.462 10 0 60358 52200.00000 0 -6054515.903 -18258148.486 16789094.861 10 0 60358 53100.00000 0 -6042592.057 -20183001.571 14421226.708 10 0 60358 54000.00000 0 -6171941.863 -21795474.811 11773990.068 10 0 60358 54900.00000 0 -6396895.266 -23055563.820 8898615.832 10 0 60358 55800.00000 0 -6665841.180 -23934946.888 5850772.300 10 0 60358 56700.00000 0 -6923611.454 -24418043.031 2689497.461 10 0 60358 57600.00000 0 -7114025.061 -24502556.425 -523936.301 10 0 60358 58500.00000 0 -7182485.413 -24199484.034 -3727203.743 10 0 60358 59400.00000 0 -7078521.073 -23532585.418 -6858132.055 10 0 60358 60300.00000 0 -6758162.097 -22537336.175 -9855906.671 10 0 60358 61200.00000 0 -6186050.686 -21259408.109 -12662254.028 10 0 60358 62100.00000 0 -5337195.708 -19752739.206 -15222577.991 10 0 60358 63000.00000 0 -4198295.277 -18077273.861 -17487027.400 10 0 60358 63900.00000 0 -2768569.627 -16296467.875 -19411473.412 10 0 60358 64800.00000 0 -1060066.949 -14474662.758 -20958377.030 10 0 60358 65700.00000 0 902572.965 -12674439.573 -22097529.372 10 0 60358 66600.00000 0 3082889.567 -10954063.507 -22806649.634 10 0 60358 67500.00000 0 5433876.601 -9365126.641 -23071828.553 10 0 60358 68400.00000 0 7899709.730 -7950488.071 -22887808.165 10 0 60358 69300.00000 0 10417855.779 -6742598.063 -22258091.832 10 0 60358 70200.00000 0 12921476.376 -5762276.682 -21194881.877 10 0 60358 71100.00000 0 15342026.069 -5017998.116 -19718845.560 10 0 60358 72000.00000 0 17611936.439 -4505710.498 -17858713.563 10 0 60358 72900.00000 0 19667273.860 -4209198.188 -15650718.587 10 0 60358 73800.00000 0 21450259.367 -4100970.407 -13137884.945 10 0 60358 74700.00000 0 22911544.733 -4143637.570 -10369183.236 10 0 60358 75600.00000 0 24012149.039 -4291715.806 -7398567.061 10 0 60358 76500.00000 0 24724974.439 -4493781.777 -4283911.285 10 0 60358 77400.00000 0 25035837.630 -4694884.975 -1085873.564 10 0 60358 78300.00000 0 24943974.331 -4839113.661 2133297.568 10 0 60358 79200.00000 0 24461996.488 -4872204.290 5310983.657 10 0 60358 80100.00000 0 23615305.306 -4744082.553 8385421.430 10 0 60358 81000.00000 0 22440986.303 -4411227.524 11296907.282 10 0 60358 81900.00000 0 20986234.419 -3838758.236 13988957.206 10 0 60358 82800.00000 0 19306376.814 -3002154.251 16409399.364 10 0 60358 83700.00000 0 17462577.570 -1888537.635 18511378.414 10 0 60358 84600.00000 0 15519321.285 -497462.529 20254252.816 10 0 60358 85500.00000 0 13541781.215 1158820.609 21604368.781 10 0 60359 0.00000 0 11593181.842 3055636.804 22535697.210 10 0 60359 900.00000 0 9732264.133 5156684.144 23030323.193 10 0 60359 1800.00000 0 8010960.461 7415321.500 23078778.910 10 0 60359 2700.00000 0 6472370.945 9776296.789 22680216.472 10 0 60359 3600.00000 0 5149126.243 12177842.323 21842416.981 10 0 60359 4500.00000 0 4062202.041 14554052.392 20581636.800 10 0 60359 5400.00000 0 3220233.070 16837445.626 18922294.016 10 0 60359 6300.00000 0 2619353.775 18961607.272 16896500.865 10 0 60359 7200.00000 0 2243571.187 20863803.085 14543450.420 10 0 60359 8100.00000 0 2065653.700 22487457.495 11908668.442 10 0 60359 9000.00000 0 2048498.229 23784393.961 9043143.639 10 0 60359 9900.00000 0 2146918.389 24716744.762 6002351.999 10 0 60359 10800.00000 0 2309778.766 25258450.819 2845192.914 10 0 60359 11700.00000 0 2482385.717 25396288.705 -367143.276 10 0 60359 12600.00000 0 2609034.161 25130381.319 -3572355.045 10 0 60359 13500.00000 0 2635602.889 24474170.051 -6708234.315 10 0 60359 14400.00000 0 2512088.529 23453848.573 -9713872.763 10 0 60359 15300.00000 0 2194970.441 22107280.951 -12530846.244 10 0 60359 16200.00000 0 1649305.595 20482448.403 -15104353.992 10 0 60359 17100.00000 0 850463.503 18635488.958 -17384290.068 10 0 60359 18000.00000 0 -214573.795 16628411.523 -19326225.593 10 0 60359 18900.00000 0 -1546403.521 14526579.694 -20892282.093 10 0 60359 19800.00000 0 -3132921.953 12396070.491 -22051878.378 10 0 60359 20700.00000 0 -4949586.200 10301018.615 -22782335.773 10 0 60359 21600.00000 0 -6960209.038 8301057.497 -23069329.359 10 0 60359 22500.00000 0 -9118255.354 6448964.445 -22907175.861 10 0 60359 23400.00000 0 -11368587.358 4788608.629 -22298952.017 10 0 60359 24300.00000 0 -13649586.646 3353287.936 -21256440.601 10 0 60359 25200.00000 0 -15895564.977 2164524.259 -19799904.660 10 0 60359 26100.00000 0 -18039363.138 1231367.441 -17957694.004 10 0 60359 27000.00000 0 -20015029.024 550236.509 -15765691.362 10 0 60359 27900.00000 0 -21760462.399 105303.905 -13266608.938 10 0 60359 28800.00000 0 -23219914.949 -130594.619 -10509149.305 10 0 60359 29700.00000 0 -24346240.219 -194564.363 -7547047.436 10 0 60359 30600.00000 0 -25102798.550 -131830.913 -4438013.286 10 0 60359 31500.00000 0 -25464936.773 6426.955 -1242596.505 10 0 60359 32400.00000 0 -25420980.609 165497.117 1977003.436 10 0 60359 33300.00000 0 -24972698.526 289702.512 5158157.401 10 0 60359 34200.00000 0 -24135218.448 325007.799 8239032.086 10 0 60359 35100.00000 0 -22936401.940 221552.684 11159796.106 10 0 60359 36000.00000 0 -21415703.536 -63996.152 13863782.640 10 0 60359 36900.00000 0 -19622564.426 -566374.387 16298585.797 10 0 60359 37800.00000 0 -17614409.088 -1310018.200 18417069.681 10 0 60359 38700.00000 0 -15454329.618 -2307802.767 20178271.292 10 0 60359 39600.00000 0 -13208555.055 -3560273.878 21548180.806 10 0 60359 40500.00000 0 -10943811.271 -5055404.594 22500385.484 10 0 60359 41400.00000 0 -8724680.826 -6768886.957 23016566.271 10 0 60359 42300.00000 0 -6611071.640 -8664946.565 23086838.907 10 0 60359 43200.00000 0 -4655898.168 -10697646.383 22709934.292 10 0 60359 44100.00000 0 -2903069.668 -12812626.141 21893215.616 10 0 60359 45000.00000 0 -1385867.219 -14949205.932 20652532.500 10 0 60359 45900.00000 0 -125775.071 -17042767.738 19011915.133 10 0 60359 46800.00000 0 868186.793 -19027317.284 17003114.026 10 0 60359 47700.00000 0 1599602.479 -20838121.014 14664993.576 10 0 60359 48600.00000 0 2084267.620 -22414309.777 12042790.206 10 0 60359 49500.00000 0 2349281.493 -23701341.755 9187248.225 10 0 60359 50400.00000 0 2431662.167 -24653222.642 6153648.954 10 0 60359 51300.00000 0 2376542.805 -25234390.602 3000750.729 10 0 60359 52200.00000 0 2235024.821 -25421187.073 -210340.671 10 0 60359 53100.00000 0 2061778.120 -25202851.265 -3417349.975 10 0 60359 54000.00000 0 1912489.535 -24581995.745 -6558036.389 10 0 60359 54900.00000 0 1841267.274 -23574542.024 -9571400.378 10 0 60359 55800.00000 0 1898111.451 -22209117.490 -12398869.712 10 0 60359 56700.00000 0 2126558.313 -20525937.669 -14985441.438 10 0 60359 57600.00000 0 2561598.828 -18575219.402 -17280757.145 10 0 60359 58500.00000 0 3227960.982 -16415190.390 -19240090.036 10 0 60359 59400.00000 0 4138830.005 -14109777.628 -20825224.017 10 0 60359 60300.00000 0 5295062.421 -11726070.898 -22005207.113 10 0 60359 61200.00000 0 6684929.048 -9331667.117 -22756963.927 10 0 60359 62100.00000 0 8284399.736 -6992006.402 -23065754.631 10 0 60359 63000.00000 0 10057959.772 -4767811.243 -22925471.002 10 0 60359 63900.00000 0 11959925.219 -2712735.847 -22338763.142 10 0 60359 64800.00000 0 13936203.296 -871323.997 -21316993.915 10 0 60359 65700.00000 0 15926424.807 722639.276 -19880021.478 10 0 60359 66600.00000 0 17866359.605 2047313.430 -18055813.768 10 0 60359 67500.00000 0 19690513.827 3093476.439 -15879902.201 10 0 60359 68400.00000 0 21334799.590 3864659.644 -13394685.175 10 0 60359 69300.00000 0 22739164.522 4376738.942 -10648595.151 10 0 60359 70200.00000 0 23850069.951 4657001.033 -7695146.018 10 0 60359 71100.00000 0 24622712.959 4742725.818 -4591880.004 10 0 60359 72000.00000 0 25022898.282 4679346.747 -1399235.664 10 0 60359 72900.00000 0 25028481.067 4518268.897 1820639.876 10 0 60359 73800.00000 0 24630319.849 4314438.995 5005110.154 10 0 60359 74700.00000 0 23832700.067 4123772.029 8092275.146 10 0 60359 75600.00000 0 22653211.104 4000544.829 11022178.844 10 0 60359 76500.00000 0 21122082.989 3994867.947 13737974.543 10 0 60359 77400.00000 0 19281011.746 4150343.423 16187024.932 10 0 60359 78300.00000 0 17181523.707 4502007.540 18321915.867 10 0 60359 79200.00000 0 14882948.090 5074645.242 20101364.854 10 0 60359 80100.00000 0 12450083.140 5881546.778 21491007.629 10 0 60359 81000.00000 0 9950653.205 6923758.331 22464048.986 10 0 60359 81900.00000 0 7452662.214 8189857.636 23001766.729 10 0 60359 82800.00000 0 5021752.695 9656263.676 23093860.477 10 0 60359 83700.00000 0 2718678.630 11288067.489 22738639.902 10 0 60359 84600.00000 0 596995.300 13040349.796 21943049.793 10 0 60359 85500.00000 0 -1298939.917 14859931.128 20722532.067 10 0 60360 0.00000 0 -2935574.656 16687482.409 19100727.767 10 0 60360 900.00000 0 -4291312.542 18459910.229 17109023.549 10 0 60360 1800.00000 0 -5357159.648 20112916.296 14785953.058 10 0 60360 2700.00000 0 -6136843.713 21583628.885 12176460.877 10 0 60360 3600.00000 0 -6646399.851 22813195.144 9331044.179 10 0 60360 4500.00000 0 -6913241.526 23749227.700 6304786.701 10 0 60360 5400.00000 0 -6974755.797 24348003.516 3156302.694 10 0 60360 6300.00000 0 -6876481.821 24576322.861 -53389.721 10 0 60360 7200.00000 0 -6669949.081 24412949.974 -3262044.635 10 0 60360 8100.00000 0 -6410266.299 23849574.060 -6407391.576 10 0 60360 9000.00000 0 -6153562.730 22891249.060 -9428342.695 10 0 60360 9900.00000 0 -5954390.040 21556292.184 -12266180.374 10 0 60360 10800.00000 0 -5863195.017 19875643.928 -14865701.896 10 0 60360 11700.00000 0 -5923970.665 17891714.762 -17176298.502 10 0 60360 12600.00000 0 -6172186.015 15656765.411 -19152947.271 10 0 60360 13500.00000 0 -6633083.429 13230887.312 -20757095.958 10 0 60360 14400.00000 0 -7320416.864 10679666.729 -21957422.953 10 0 60360 15300.00000 0 -8235686.027 8071629.548 -22730456.957 10 0 60360 16200.00000 0 -9367900.446 5475573.036 -23061043.727 10 0 60360 17100.00000 0 -10693885.106 2957895.766 -22942650.218 10 0 60360 18000.00000 0 -12179116.317 580037.135 -22377499.640 10 0 60360 18900.00000 0 -13779053.912 -1603866.662 -21376534.270 10 0 60360 19800.00000 0 -15440914.736 -3549012.346 -19959206.267 10 0 60360 20700.00000 0 -17105813.375 -5221560.286 -18153100.161 10 0 60360 21600.00000 0 -18711180.314 -6599798.440 -15993394.147 10 0 60360 22500.00000 0 -20193355.595 -7674791.415 -13522170.577 10 0 60360 23400.00000 0 -21490248.341 -8450488.446 -10787589.317 10 0 60360 24300.00000 0 -22543949.483 -8943287.093 -7842940.501 10 0 60360 25200.00000 0 -23303186.862 -9181072.745 -4745595.850 10 0 60360 26100.00000 0 -23725518.544 -9201776.288 -1555879.969 10 0 60360 27000.00000 0 -23779171.342 -9051512.920 1664115.266 10 0 60360 27900.00000 0 -23444446.822 -8782382.843 4851748.976 10 0 60360 28800.00000 0 -22714635.573 -8450028.745 7945057.320 10 0 60360 29700.00000 0 -21596401.665 -8111055.119 10883962.505 10 0 60360 30600.00000 0 -20109621.749 -7820419.833 13611440.665 10 0 60360 31500.00000 0 -18286686.410 -7628909.097 16074625.584 10 0 60360 32400.00000 0 -16171293.965 -7580802.838 18225827.115 10 0 60360 33300.00000 0 -13816787.906 -7711828.902 20023445.144 10 0 60360 34200.00000 0 -11284108.050 -8047491.853 21432762.428 10 0 60360 35100.00000 0 -8639440.911 -8601845.991 22426602.284 10 0 60360 36000.00000 0 -5951666.787 -9376763.402 22985839.908 10 0 60360 36900.00000 0 -3289708.910 -10361727.092 23099758.871 10 0 60360 37800.00000 0 -719893.394 -11534157.432 22766247.284 10 0 60360 38700.00000 0 1696572.129 -12860258.209 21991830.833 10 0 60360 39600.00000 0 3905898.507 -14296347.194 20791542.725 10 0 60360 40500.00000 0 5863700.320 -15790616.337 19188633.231 10 0 60360 41400.00000 0 7536585.936 -17285249.069 17214124.189 10 0 60360 42300.00000 0 8903288.061 -18718807.437 14906216.443 10 0 60360 43200.00000 0 9955289.205 -20028790.574 12309560.700 10 0 60360 44100.00000 0 10696917.108 -21154258.672 9474404.724 10 0 60360 45000.00000 0 11144906.844 -22038413.509 6455632.196 10 0 60360 45900.00000 0 11327448.320 -22631028.010 3311710.637 10 0 60360 46800.00000 0 11282759.185 -22890623.044 103567.767 10 0 60360 47700.00000 0 11057243.025 -22786299.725 -3106582.660 10 0 60360 48600.00000 0 10703310.173 -22299149.442 -6256443.265 10 0 60360 49500.00000 0 10276952.824 -21423181.105 -9284840.601 10 0 60360 50400.00000 0 9835176.787 -20165725.069 -12132914.267 10 0 60360 51300.00000 0 9433398.477 -18547295.011 -14745264.242 10 0 60360 52200.00000 0 9122917.579 -16600911.652 -17071033.693 10 0 60360 53100.00000 0 8948572.884 -14370914.942 -19064905.617 10 0 60360 54000.00000 0 8946681.274 -11911312.781 -20687993.362 10 0 60360 54900.00000 0 9143348.097 -9283734.026 -21908607.090 10 0 60360 55800.00000 0 9553221.615 -6555070.263 -22702880.631 10 0 60360 56700.00000 0 10178745.453 -3794904.063 -23055245.954 10 0 60360 57600.00000 0 11009942.059 -1072830.540 -22958745.432 10 0 60360 58500.00000 0 12024737.559 1544216.276 -22415175.249 10 0 60360 59400.00000 0 13189815.514 3994520.844 -21435056.626 10 0 60360 60300.00000 0 14461964.457 6223920.653 -20037434.939 10 0 60360 61200.00000 0 15789863.005 8187820.470 -18249510.238 10 0 60360 62100.00000 0 17116227.524 9852802.390 -16106106.122 10 0 60360 63000.00000 0 18380231.669 11197764.786 -13648987.226 10 0 60360 63900.00000 0 19520095.313 12214543.188 -10926038.839 10 0 60360 64800.00000 0 20475732.915 12907988.188 -7990325.045 10 0 60360 65700.00000 0 21191348.753 13295498.572 -4899044.468 10 0 60360 66600.00000 0 21617868.568 13406031.103 -1712404.936 10 0 60360 67500.00000 0 21715104.213 13278630.731 1507559.912 10 0 60360 68400.00000 0 21453559.401 12960545.357 4698207.843 10 0 60360 69300.00000 0 20815800.056 12505006.840 7797514.236 10 0 60360 70200.00000 0 19797331.566 11968773.883 10745282.444 10 0 60360 71100.00000 0 18406946.302 11409542.158 13484314.176 10 0 60360 72000.00000 0 16666527.316 10883332.149 15961516.842 10 0 60360 72900.00000 0 14610317.137 10441965.566 18128926.550 10 0 60360 73800.00000 0 12283682.847 10130736.826 19944627.561 10 0 60360 74700.00000 0 9741429.556 9986377.276 21373551.360 10 0 60360 75600.00000 0 7045732.764 10035397.075 22388141.187 10 0 60360 76500.00000 0 4263775.413 10292873.408 22968870.687 10 0 60360 77400.00000 0 1465187.210 10761734.948 23104608.076 10 0 60360 78300.00000 0 -1280608.667 11432571.638 22792820.172 10 0 60360 79200.00000 0 -3907032.970 12283977.244 22039613.389 10 0 60360 80100.00000 0 -6352864.351 13283410.084 20859611.572 10 0 60360 81000.00000 0 -8564527.665 14388536.172 19275673.254 10 0 60360 81900.00000 0 -10498063.669 15548999.171 17318453.593 10 0 60360 82800.00000 0 -12120700.144 16708543.986 15025818.786 10 0 60360 83700.00000 0 -13411960.683 17807406.192 12442123.362 10 0 60360 84600.00000 0 -14364266.200 18784868.293 9617363.135 10 0 60360 85500.00000 0 -14983004.867 19581876.597 6606219.010 10 0 60361 0.00000 0 -15286068.017 20143609.539 3467009.231 10 0 60361 900.00000 0 -15302871.680 20421890.118 260567.654 10 0 60361 1800.00000 0 -15072904.401 20377340.153 -2950926.768 10 0 60361 2700.00000 0 -14643862.671 19981186.112 -6105152.673 10 0 60361 3600.00000 0 -14069451.743 19216638.566 -9140853.868 10 0 60361 4500.00000 0 -13406944.583 18079786.060 -11999029.918 10 0 60361 5400.00000 0 -12714601.831 16579963.904 -14624086.072 10 0 60361 6300.00000 0 -12049061.861 14739580.360 -16964919.764 10 0 60361 7200.00000 0 -11462811.534 12593405.485 -18975921.973 10 0 60361 8100.00000 0 -11001845.041 10187350.456 -20617873.402 10 0 60361 9000.00000 0 -10703610.520 7576786.722 -21858717.413 10 0 60361 9900.00000 0 -10595332.073 4824473.806 -22674194.055 10 0 60361 10800.00000 0 -10692779.061 1998181.171 -23048322.252 10 0 60361 11700.00000 0 -10999535.679 -831897.440 -22973720.166 10 0 60361 12600.00000 0 -11506802.649 -3595829.805 -22451756.929 10 0 60361 13500.00000 0 -12193740.277 -6226619.426 -21492532.272 10 0 60361 14400.00000 0 -13028339.129 -8662756.730 -20114683.928 10 0 60361 15300.00000 0 -13968781.983 -10850540.809 -18345026.192 10 0 60361 16200.00000 0 -14965239.744 -12746074.836 -16218026.411 10 0 60361 17100.00000 0 -15962025.284 -14316851.994 -13775129.522 10 0 60361 18000.00000 0 -16900013.774 -15542865.997 -11063943.973 10 0 60361 18900.00000 0 -17719226.441 -16417200.468 -8137305.345 10 0 60361 19800.00000 0 -18361467.657 -16946073.613 -5052236.558 10 0 60361 20700.00000 0 -18772902.845 -17148337.828 -1868825.952 10 0 60361 21600.00000 0 -18906467.253 -17054457.139 1350953.853 10 0 60361 22500.00000 0 -18724002.987 -16705007.589 4544462.117 10 0 60361 23400.00000 0 -18198033.460 -16148765.908 7649616.306 10 0 60361 24300.00000 0 -17313100.081 -15440469.114 10606103.781 10 0 60361 25200.00000 0 -16066604.854 -14638341.307 13356554.637 10 0 60361 26100.00000 0 -14469123.681 -13801493.366 15847652.565 10 0 60361 27000.00000 0 -12544177.640 -12987305.979 18031162.375 10 0 60361 27900.00000 0 -10327472.255 -12248906.586 19864854.843 10 0 60361 28800.00000 0 -7865636.966 -11632846.117 21313311.946 10 0 60361 29700.00000 0 -5214517.547 -11177072.497 22348598.202 10 0 60361 30600.00000 0 -2437092.375 -10909284.923 22950786.620 10 0 60361 31500.00000 0 398901.368 -10845736.715 23108330.547 10 0 60361 32400.00000 0 3223534.030 -10990535.668 22818275.588 10 0 60361 33300.00000 0 5967337.350 -11335470.165 22086308.591 10 0 60361 34200.00000 0 8563937.504 -11860367.555 20926643.409 10 0 60361 35100.00000 0 10952560.102 -12533969.476 19361745.914 10 0 60361 36000.00000 0 13080305.221 -13315287.567 17421903.351 10 0 60361 36900.00000 0 14904099.834 -14155383.235 15144645.747 10 0 60361 37800.00000 0 16392248.137 -14999497.674 12574029.626 10 0 60361 38700.00000 0 17525516.503 -15789443.716 9759796.696 10 0 60361 39600.00000 0 18297708.723 -16466159.999 6756422.624 10 0 60361 40500.00000 0 18715707.994 -16972320.882 3622073.065 10 0 60361 41400.00000 0 18798984.072 -17254892.780 417486.174 10 0 60361 42300.00000 0 18578586.093 -17267529.340 -2795197.550 10 0 60361 43200.00000 0 18095663.072 -16972704.152 -5953635.896 10 0 60361 44100.00000 0 17399573.899 -16343490.194 -8996493.011 10 0 60361 45000.00000 0 16545666.027 -15364909.677 -11864631.374 10 0 60361 45900.00000 0 15592816.219 -14034795.648 -14502264.255 10 0 60361 46800.00000 0 14600836.921 -12364127.057 -16858045.862 10 0 60361 47700.00000 0 13627857.788 -10376820.993 -18886077.383 10 0 60361 48600.00000 0 12727793.113 -8108988.616 -20546808.770 10 0 60361 49500.00000 0 11948002.473 -5607683.867 -21807818.133 10 0 60361 50400.00000 0 11327243.923 -2929195.521 -22644452.899 10 0 60361 51300.00000 0 10894006.771 -136952.457 -23040319.690 10 0 60361 52200.00000 0 10665294.967 2700871.580 -22987612.789 10 0 60361 53100.00000 0 10645913.174 5513954.525 -22487274.216 10 0 60361 54000.00000 0 10828286.193 8232516.038 -21548981.762 10 0 60361 54900.00000 0 11192819.829 10789989.069 -20190964.725 10 0 60361 55800.00000 0 11708788.163 13125561.467 -18439650.522 10 0 60361 56700.00000 0 12335709.749 15186481.521 -16329148.812 10 0 60361 57600.00000 0 13025154.232 16930031.096 -13900583.078 10 0 60361 58500.00000 0 13722902.436 18325083.988 -11201282.882 10 0 60361 59400.00000 0 14371367.666 19353184.682 -8283852.941 10 0 60361 60300.00000 0 14912174.767 20009103.077 -5205137.855 10 0 60361 61200.00000 0 15288786.597 20300843.014 -2025103.627 10 0 60361 62100.00000 0 15449065.640 20249105.823 1194341.138 10 0 60361 63000.00000 0 15347661.327 19886233.238 4390560.251 10 0 60361 63900.00000 0 14948121.285 19254676.217 7501416.294 10 0 60361 64800.00000 0 14224636.753 18405056.172 10466483.554 10 0 60361 65700.00000 0 13163348.259 17393902.149 13228223.243 10 0 60361 66600.00000 0 11763156.534 16281160.828 15733097.847 10 0 60361 67500.00000 0 10036004.780 15127585.254 17932603.140 10 0 60361 68400.00000 0 8006620.753 13992112.692 19784198.406 10 0 60361 69300.00000 0 5711729.714 12929341.777 21252117.832 10 0 60361 70200.00000 0 3198771.290 11987214.274 22308048.630 10 0 60361 71100.00000 0 524173.553 11204997.620 22931664.271 10 0 60361 72000.00000 0 -2248744.336 10611651.449 23111003.968 10 0 60361 72900.00000 0 -5052154.664 10224644.946 22842692.458 10 0 60361 73800.00000 0 -7816291.324 10049273.085 22131996.932 10 0 60361 74700.00000 0 -10472102.530 10078499.113 20992720.703 10 0 60361 75600.00000 0 -12953877.941 10293328.964 19446935.959 10 0 60361 76500.00000 0 -15201743.118 10663701.444 17524560.556 10 0 60361 77400.00000 0 -17163919.558 11149856.878 15262786.468 10 0 60361 78300.00000 0 -18798658.038 11704127.160 12705369.974 10 0 60361 79200.00000 0 -20075766.126 12273072.715 9901796.188 10 0 60361 80100.00000 0 -20977667.082 12799877.335 6906332.859 10 0 60361 81000.00000 0 -21499946.487 13226900.897 3776990.561 10 0 60361 81900.00000 0 -21651363.841 13498283.022 574408.352 10 0 60361 82800.00000 0 -21453328.465 13562488.167 -2639314.292 10 0 60361 83700.00000 0 -20938861.270 13374684.633 -5801817.149 10 0 60361 84600.00000 0 -20151085.461 12898856.449 -8851687.514 10 0 60361 85500.00000 0 -19141309.109 12109557.906 -11729653.516 99